This demonstration page uses our WeatherBlox Daily Observations layout. Learn more.

Left ArrowRight Arrow

Hourly Observations for January 4, 2022

Temp ( °F °C ) Dew Point ( °F °C ) Humidity (%) Winds ( mph kmh ) Pressure ( in mb ) Visibility ( mi km ) Precip ( " mm )
12:53 am 00:53 Clear 31 -0.6 12 -11.1 45 45 SE 8 13 30.13 1020 10 16 0.00 0.00
1:53 am 01:53 Clear 28 -2.2 11 -11.7 49 49 SSE 8 13 30.11 1020 10 16 0.00 0.00
2:53 am 02:53 Clear 28 -2.2 10 -12.2 47 47 SE 3 6 30.10 1019 10 16 0.00 0.00
3:53 am 03:53 Clear 23 -5 11 -11.7 60 60 SSE 3 6 30.09 1019 10 16 0.00 0.00
4:53 am 04:53 Clear 26 -3.3 10 -12.2 51 51 SSE 5 7 30.06 1018 10 16 0.00 0.00
5:53 am 05:53 Clear 21 -6.1 11 -11.7 65 65 N 3 6 30.06 1018 10 16 0.00 0.00
6:53 am 06:53 Clear 20 -6.7 11 -11.7 68 68 Calm 30.06 1018 10 16 0.00 0.00
7:53 am 07:53 Clear 19 -7.2 12 -11.1 74 74 N 3 6 30.08 1019 10 16 0.00 0.00
8:53 am 08:53 Sunny 27 -2.8 15 -9.4 61 61 Calm 30.08 1019 10 16 0.00 0.00
9:53 am 09:53 Sunny 39 3.9 18 -7.8 43 43 Calm 30.06 1018 10 16 0.00 0.00
10:53 am 10:53 Sunny 53 11.7 19 -7.2 26 26 W 12 19 30.05 1018 10 16 0.00 0.00
11:53 am 11:53 Sunny 58 14.4 18 -7.8 21 21 W 12 19 30.02 1017 10 16 0.00 0.00
12:53 pm 12:53 Sunny 64 17.8 17 -8.3 16 16 W 14 22 29.97 1015 10 16 0.00 0.00
1:53 pm 13:53 Sunny 68 20 14 -10 12 12 W 14 22 29.93 1014 10 16 0.00 0.00
2:53 pm 14:53 Sunny 69 20.6 12 -11.1 11 11 WNW 16 26 29.91 1013 10 16 0.00 0.00
3:53 pm 15:53 Sunny 69 20.6 12 -11.1 11 11 W 18 30 29.92 1013 10 16 0.00 0.00
4:53 pm 16:53 Sunny 68 20 14 -10 12 12 W 16 26 29.91 1013 10 16 0.00 0.00
5:53 pm 17:53 Sunny 63 17.2 16 -8.9 16 16 W 13 20 29.94 1014 10 16 0.00 0.00
6:53 pm 18:53 Clear 58 14.4 17 -8.3 20 20 W 13 20 29.96 1015 10 16 0.00 0.00
7:53 pm 19:53 Clear 55 12.8 18 -7.8 23 23 W 10 17 29.98 1015 10 16 0.00 0.00
8:53 pm 20:53 Clear 52 11.1 20 -6.7 28 28 WNW 13 20 29.97 1015 10 16 0.00 0.00
9:53 pm 21:53 Clear 49 9.4 20 -6.7 32 32 W 9 15 29.96 1015 10 16 0.00 0.00
10:53 pm 22:53 Clear 44 6.7 21 -6.1 40 40 W 10 17 29.95 1014 10 16 0.00 0.00
11:53 pm 23:53 Clear 40 4.4 20 -6.7 45 45 NW 6 9 29.96 1015 10 16 0.00 0.00

Powered by AerisWeather